User: anonymous   Login
Location: Barnston
(51.8500°N, 0.4000°E)
Time: 23:04:21
(UTC+00:00)
Language:

ATLAS 5 CENTAUR R/B - Orbit

View from above orbital plane
View from above orbital plane
View from above satellite
View from above satellite

Ground track
Ground track

The orbit data is extracted from the following two-line orbital elements,

1 31702U 07027B   24052.75210833 0.00012500  00000-0  11858-2 0    07
2 31702  63.3366 279.4690 0515327  31.1737 328.8263 14.26874137    09
Epoch (UTC): 21 February 2024 18:03:02
Eccentricity: 0.0515327
inclination: 63.3366°
perigee height: 432 km
apogee height: 1172 km
right ascension of ascending node: 279.4690°
argument of perigee: 31.1737°
revolutions per day: 14.26874137
mean anomaly at epoch: 328.8263°
orbit number at epoch: 0

The dashed part of the orbit path shows where the satellite is in the earth's shadow,  

DLR